STARLINK-2616 (48695 NORAD) Tracking and Keplerian Element Data

This shows tracking and keplerian element data for the satellite.

Feedback or suggestion? Click here.




ElementValue
Catalog48695
NameSTARLINK-2616
Epoch Orbit369
Epoch Day214.91667824
Epoch Year2021
RAAN85.9863
Inclination53.0472
Eccentricity0.000215
Argument of Perigee37.1675
Mean Anonmoly52.1808
Mean Motion15.73204616
Decay Rate-1.88E-06
L11 48695U 21044BK 21214.91667824 -.00000188 00000-0 30935-5 0 9999
L22 48695 53.0472 85.9863 0002150 37.1675 52.1808 15.73204616 3698

Live tracking and technical data element details for STARLINK-2616 (NORAD 48695). STARLINK-2616 can be tracked NOW for your location showing map with azimuth and elevation plus other details from your city location.

Track the satellite on the map from your city or location and see movement details for azimuth, elevation, latitude, longitude, range, height, and movement on the map or in text.







IsCatalogInMostPopularTable: catalog: 48695, numindb: 20
Update: records affected: 1



GetName: 48695 STARLINK-2616

Hit Count: updated at: Tue, 03 Aug 2021 20:23:52 GMT